Regional Weather Roundup
Issued by NWS

Home | Current Version | Previous Version | Graphics & Text | Print | Product List | Glossary On
Versions: 1 2 3 4 5 6 7 8 9 10 11 12 13 14 15 16 17 18 19 20 21 22 23 24 25 26 27 28 29 30 31 32 33 34 35 36 37 38 39 40 41 42 43 44 45 46 47 48 49 50
000
ASUS45 KTFX 171810
RWRMT
MONTANA REGIONAL WEATHER ROUNDUP
NATIONAL WEATHER SERVICE GREAT FALLS MT
1100 AM MST TUE JAN 17 2017

NOTE: "FAIR" INDICATES FEW OR NO CLOUDS BELOW 12000 FEET WITH NO
SIGNIFICANT WEATHER AND/OR OBSTRUCTIONS TO VISIBILITY.

MTZ001>007-043-171900-
WEST OF THE DIVIDE

CITY           SKY/WX    TMP DP  RH WIND       PRES   REMARKS
KALISPELL      CLOUDY    15  11  83 CALM      30.04F
MISSOULA       PTSUNNY    6   6 100 CALM      30.15F FOG
BUTTE          CLOUDY     7   1  76 E3        30.06S
MULLAN PASS    CLOUDY    28  18  66 S8        29.95R WCI  20
ANACONDA         N/A     27   9  46 S18       30.02F WCI  13
DEER LODGE       N/A      9   1  72 CALM      30.08F
EUREKA           N/A     27  18  69 S10       29.97F WCI  17
HAMILTON         N/A      9   1  72 CALM      30.09F
PLAINS           N/A     14   7  74 CALM      30.12R
RONAN            N/A      7   2  80 MISG      30.08S
THOMPSON FALLS   N/A     14   7  74 E7        30.13  WCI   4
$$

MTZ008-052>055-171900-
SOUTHWEST MONTANA

CITY           SKY/WX    TMP DP  RH WIND       PRES   REMARKS
BOZEMAN        CLOUDY    13   7  77 CALM      30.08R
DILLON         CLOUDY    25   8  48 SW15      30.09S WCI  13
W YELLOWSTONE  CLOUDY     3   0  85 CALM      30.22F
ENNIS          SUNNY     27  16  63 S21       30.11S WCI  13
TWIN BRIDGES     N/A     18   3  51 SE6       30.07S WCI  10
$$

MTZ009-010-012-014-046-048-049-054-171900-
EAST SLOPES AND CENTRAL MONTANA

CITY           SKY/WX    TMP DP  RH WIND       PRES   REMARKS
CUT BANK       CLOUDY    41  24  51 W24       29.76F
GREAT FALLS    CLOUDY    40  20  44 SW31      29.85R
MALMSTROM AFB  CLOUDY    37  23  56 SW20      29.86F WCI  26
HELENA         CLOUDY     6  -1  73 NE3       30.08F HAZE
AUGUSTA          N/A     37  24  58 S21G26    29.85F WCI  26
BOWMANS CRNR     N/A     28  15  58 S29       29.87F WCI  12
CHOTEAU          N/A     43  28  56 SW17      29.83S
CONRAD           N/A     43  33  67 S3        29.83S
FAIRFIELD        N/A     34  18  53 SW35G41   29.82F WCI  19
POWER            N/A     35  22  57 SW20      29.83F WCI  24
RAYNESFORD       N/A     51  25  36 SW20G35   29.86R
ULM              N/A     38  19  46 MISG      29.89F
$$

MTZ011-013-016-021-045-047-050-051-171900-
NORTH CENTRAL MONTANA

CITY           SKY/WX    TMP DP  RH WIND       PRES   REMARKS
HAVRE          CLOUDY    40  25  55 SW32G40   29.74F
LEWISTOWN      CLOUDY    39  25  57 W13       29.85R WCI  31
N BAR RANCH      N/A     52  25  35 W13G20    29.83S
CHINOOK          N/A     46  23  39 W25G35    29.69F
DENTON           N/A     43  27  53 W24       29.79R
FORT BENTON      N/A     45  18  33 MISG      29.83F
GEYSER           N/A     44  26  50 W28       29.82R
GRASS RANGE      N/A     43  25  49 W18       29.78S
JUDITH GAP       N/A     43  23  44 W18G29    29.86R
ROY              N/A     42  28  56 MISG      29.79R
STANFORD         N/A     51  24  34 SW9G23    29.84R
WINIFRED         N/A     43  25  48 W16       29.80R
$$

MTZ017>020-022>027-061-062-171900-
NORTHEAST MONTANA

CITY           SKY/WX    TMP DP  RH WIND       PRES   REMARKS
GLASGOW        CLOUDY    23  16  74 NE9       29.73R WCI  13
JORDAN           N/A     35  24  64 W9        29.78S WCI  28
SIDNEY         CLOUDY    20  13  74 S21       29.77F WCI   4
WOLF POINT     CLOUDY    17   8  67 CALM      29.75F
PLENTYWOOD       N/A     21  14  73 S12       29.70F WCI   9
POPLAR           N/A     19  10  68 CALM      29.76F
SCOBEY           N/A     31  13  47 S3        29.69F
$$

MTZ028>42-056>058-171900-
SOUTHCENTRAL AND SOUTHEAST MONTANA

CITY           SKY/WX    TMP DP  RH WIND       PRES   REMARKS
BAKER          CLOUDY    29  16  58 SW21      29.85S WCI  16
BILLINGS       CLOUDY    32  14  47 SW32G43   29.89S WCI  17
LIVINGSTON     CLOUDY    37  16  42 W38G47    29.96R WCI  23
MILES CITY     CLOUDY    20  10  65 S8        29.87S WCI  10
BIG TIMBER     SUNNY     41  19  42 W35G43    29.92S
EKALAKA          N/A     35   8  32 SW16      29.85S WCI  25
FORSYTH          N/A     25  12  58 E3        29.86S
HARLOWTON        N/A     41  20  43 W39G45    29.86F
LAUREL           N/A     33  14  45 S26       29.90R WCI  20
$$

REGIONAL REPORTS...DAKOTAS

CITY           SKY/WX    TMP DP  RH WIND       PRES   REMARKS
WILLISTON      CLOUDY    21  12  68 SW10      29.76F WCI  10
MINOT          CLOUDY    25  13  60 S23       29.73F WCI  10
DICKINSON      CLOUDY    27  15  61 S12       29.79F WCI  17
BEACH            N/A     32  16  51 W20G25    29.82F WCI  20
CROSBY           N/A     19  16  86 S26       29.68F WCI   1
TIOGA            N/A     21  16  79 SW26      29.71F WCI   4
WATFORD CITY     N/A     28  16  59 SW13      29.76F WCI  18
BISMARCK       CLOUDY    13   8  81 E5        29.89F
GRAND FORKS    CLOUDY    16  10  77 S15       29.89F WCI   1
FARGO          SUNNY     17  11  77 S9        29.94F WCI   6
BUFFALO SD       N/A     28  13  53 W12       29.81F WCI  18
RAPID CITY     SUNNY     26  15  63 SE3       29.91S
$$

REGIONAL REPORTS...WYOMING/IDAHO/WASHINGTON

CITY           SKY/WX    TMP DP  RH WIND       PRES   REMARKS
GILLETTE       CLOUDY    36  16  44 SW21      29.91F WCI  25
SHERIDAN       CLOUDY    23  10  57 SE7       29.90R WCI  15
BUFFALO WY     CLOUDY    35  12  38 S8        29.91F WCI  29
CODY           CLOUDY    32   9  38 N6        29.99S WCI  26
YELLOWSTONE LA   N/A      0  -5  79 CALM      30.19F
IDAHO FALLS    CLOUDY     2  -4  76 N7        30.31S WCI -11
SALMON         CLOUDY   -11 -15  84 CALM      30.39F
BOISE          SUNNY      8   2  76 NW5       30.36R HAZE
SPOKANE        FRZ RAIN  20  18  92 E3        30.01R FOG
$$

REGIONAL REPORTS...ALBERTA

CITY           SKY/WX    TMP DP  RH WIND       PRES   REMARKS
EDMONTON       PTSUNNY   41  27  56 SW8       29.36R
CALGARY        PTSUNNY   41  30  65 S5        29.50S
LETHBRIDGE     PTSUNNY   41  28  60 SW28      29.67R
MEDICINE HAT   PTSUNNY   41  32  70 SW23G32   29.57F
WATERTON GATE    N/A     41  23  48 SW30G43     N/A
CARDSTON         N/A     46  23  39 W9G20       N/A
$$

REGIONAL REPORTS...SASKATCHEWAN

CITY           SKY/WX    TMP DP  RH WIND       PRES   REMARKS
SWIFT CURRENT  SUNNY     43  32  65 W14       29.55S
REGINA         PTSUNNY   34  27  75 SW13      29.53F WCI  25
SASKATOON      PTSUNNY   32  27  80 SW12      29.45S WCI  23
CYPRESS HILLS    N/A     45  28  53 W18G25      N/A
VAL MARIE        N/A     37  25  60 SW8         N/A  WCI  31
ROCKGLEN         N/A     32  23  69 W25         N/A  WCI  19
ASSINIBOIA       N/A     36  28  75 S8          N/A  WCI  29
$$



USA.gov is the U.S. government's official web portal to all federal, state and local government web resources and services.